Location: Launois
(49.6535°N, 4.5395°E)
Time: 14:15:28
(UTC+00:00)

SAR-Lupe-1 - Pass Details

Date: 23 May 2024
Orbit: 479 x 482 km, 98.1° (Epoch: 04 May)

Event Time Altitude Azimuth Distance (km) Brightness Sun altitude
Rises 02:31:46 0° 16° (NNE) 2,553 9.1 -9.9°
Reaches altitude 10° 02:33:51 10° 19° (NNE) 1,668 8.0 -9.7°
Maximum altitude 02:37:26 68° 103° (ESE) 523 4.3 -9.3°
Drops below altitude 10° 02:40:58 10° 187° (S) 1,654 6.3 -8.9°
Enters shadow 02:41:25 - 188° (S) 1,844 6.5 -8.9°
